Regional Weather Roundup
Issued by NWS

Home | Current Version | Previous Version | Graphics & Text | Print | Product List | Glossary Off
Versions: 1 2 3 4 5 6 7 8 9 10 11 12 13 14 15 16 17 18 19 20 21 22 23 24 25 26 27 28 29 30 31 32 33 34 35 36 37 38 39 40 41 42 43 44 45 46 47 48 49 50

000
ASUS43 KMPX 222001
RWRMN
WEATHER ROUNDUP FOR MINNESOTA
NATIONAL WEATHER SERVICE TWIN CITIES/CHANHASSEN MN
300 PM CDT SAT APR 22 2017


NOTE: "FAIR" INDICATES FEW OR NO CLOUDS BELOW 12,000 FEET WITH NO
SIGNIFICANT WEATHER AND/OR OBSTRUCTIONS TO VISIBILITY. N/A MEANS
CURRENT SKY AND/OR WEATHER CONDITIONS ARE NOT AVAILABLE.

MNZ060>063-068>070-222100-
   Twin Cities Metro

CITY           SKY/WX    TMP DP  RH WIND       PRES   REMARKS
TWIN CITIES    MOSUNNY   69  35  28 W10       30.18F
ST PAUL        SUNNY     67  33  28 VRB3      30.18F
CRYSTAL        SUNNY     67  33  28 SW13G20   30.17F
BLAINE         SUNNY     70  36  28 W12       30.17F
LAKEVILLE      SUNNY     64  36  34 CALM      30.18F
EDEN PRAIRIE   SUNNY     69  36  29 NW12G20   30.17F
SOUTH ST PAUL  SUNNY     66  33  29 W6        30.17F
LAKE ELMO      FAIR      68  36  30 W9G18     30.18F
$$
MNZ001>005-007-008-013>017-022>024-027-028-222100-
   Northwest Minnesota

CITY           SKY/WX    TMP DP  RH WIND       PRES   REMARKS
BEMIDJI        MOSUNNY   65  40  40 NW20      30.10F
HALLOCK        MIX PCPN  36  34  93 N12       30.24S
ROSEAU         LGT RAIN  37  34  87 N6        30.20S
WARROAD        RAIN      37  34  87 NW9       30.19S
THIEF RVR FALL SUNNY     53  39  59 N15G22    30.15F
CROOKSTON      SUNNY     54  43  66 N14G21    30.16F
FOSSTON        SUNNY     61  41  48 NW14      30.14F
DETROIT LAKES  SUNNY     64  36  34 W14G21    30.15F
MOORHEAD       SUNNY     66  37  34 W12G21    30.13F
PARK RAPIDS    PTSUNNY   65  35  33 W20G29    30.12F
MAHNOMEN       FAIR      63  42  47 NW18      30.12S
$$
MNZ006-009>011-018-025>026-222100-
   North Central Minnesota

CITY           SKY/WX    TMP DP  RH WIND       PRES   REMARKS
BAUDETTE       CLOUDY    43  36  76 NW15      30.16S
FLAG ISLAND    CLOUDY    39  36  87 NW14      30.17S
INTL FALLS     CLOUDY    51  36  56 NW16      30.12R
WASKISH        PTSUNNY   55  43  62 N10G18    30.13S
BIG FORK       MOSUNNY   64  36  34 NW12G20   30.07F
LONGVILLE      MOSUNNY   66  36  32 SW15G21   30.11F
GRAND RAPIDS   PTSUNNY   64  35  34 W14G22    30.11F
CRANE LAKE     PTSUNNY   55  41  58 N13G24    30.09R
ORR            MOSUNNY   61  37  41 MISG      30.04R
COOK           MOSUNNY   66  34  30 W18G26    30.05F
WALKER         MOCLDY    65  36  33 W21G26    30.09F
$$
MNZ012-019>021-037-222100-
   Northeast Minnesota

CITY           SKY/WX    TMP DP  RH WIND       PRES   REMARKS
DULUTH         MOSUNNY   65  38  36 W17G28    30.08F
ELY            CLOUDY    64  32  29 W21G29    30.02F
HIBBING        MOSUNNY   65  34  31 W14G26    30.07F
EVELETH        SUNNY     65  21  18 W21G28    30.08F
DULUTH HARBOR  SUNNY     66  36  32 W17G30    30.08F
TWO HARBORS    MOSUNNY   70  43  37 W18G26    30.04F
SILVER BAY     MOSUNNY   66  34  30 W9G24     30.03F
GRAND MARAIS     N/A     50  37  61 W10       30.02F
G MARAIS ARPRT MOSUNNY   63  28  27 SW9G21    30.03F
$$
MNZ029>031-032-039>041-046>048-054>057-064-222100-
   West Central Minnesota

CITY           SKY/WX    TMP DP  RH WIND       PRES   REMARKS
FERGUS FALLS   SUNNY     64  41  42 W13G21    30.14F
WHEATON        SUNNY     66  34  30 SW13      30.18F
MORRIS         MOSUNNY   66  39  37 W9        30.17F
ALEXANDRIA     MOSUNNY   65  37  35 W15G21    30.18F
ELBOW LAKE     FAIR      64  40  40 NW8G18    30.17F
WADENA         MOSUNNY   64  39  39 W13G20    30.14F
GLENWOOD       SUNNY     66  37  34 NW10G22   30.19F
APPLETON       SUNNY     66  34  30 NW6G20    30.18F
BENSON         SUNNY     70  25  18 NW9       30.20F
ORTONVILLE     SUNNY     66  36  32 W9G16     30.19F
MADISON        SUNNY     70  37  30 NW8       30.19F
WILLMAR        FAIR      66  37  34 NW12      30.20F
$$
MNZ033>034-036-042>043-049>051-058-059-222100-
   Central Minnesota

CITY           SKY/WX    TMP DP  RH WIND       PRES   REMARKS
ST CLOUD       SUNNY     66  35  31 W10       30.17F
SAUK CENTRE    FAIR      64  37  37 W10G21    30.18F
PAYNESVILLE    SUNNY     65  29  25 W12G18    30.19F
AITKIN         MOSUNNY   70  28  21 SW13G20   30.11F
PINE RIVER     MOSUNNY   64  39  39 W14G21    30.15F
BRAINERD       MOSUNNY   66  35  31 W18G24    30.14F
STAPLES        SUNNY     64  34  32 W10       30.15F
LONG PRAIRIE   FAIR      64  36  34 SW10      30.17F
LITTLE FALLS   SUNNY     64  32  29 SW9       30.16F
LITCHFIELD     SUNNY     66  37  34 W8G16     30.19F
BUFFALO        SUNNY     65  35  32 W8        30.19F
MAPLE LAKE     SUNNY     67  40  36 SW7G17    30.19F
HUTCHINSON     CLOUDY    66  41  39 W7        30.20F
$$
MNZ037-044-045-052-053-222100-
   East Central Minnesota

CITY           SKY/WX    TMP DP  RH WIND       PRES   REMARKS
PRINCETON      SUNNY     70  36  28 SW12G17   30.17F
MORA           SUNNY     64  36  34 W15G23    30.16F
CAMBRIDGE      SUNNY     70  45  40 W10G18    30.14F
RUSH CITY      SUNNY     66  36  33 W13       30.16F
MOOSE LAKE     SUNNY     68  34  28 W9G25     30.11F
HINCKLEY       FAIR      66  36  32 W13G20    30.14F
CLOQUET        MOSUNNY   66  28  24 SW14G23   30.09F
MCGREGOR       SUNNY     64  34  32 W8G22     30.12F
$$
MNZ071>073-080-081-089-090-097-098-222100-
   Southwest Minnesota

CITY           SKY/WX    TMP DP  RH WIND       PRES   REMARKS
MONTEVIDEO     SUNNY     68  39  34 N3        30.20F
GRANITE FALLS  SUNNY     69  38  32 W9G17     30.21F
CANBY          SUNNY     67  33  28 SW3       30.21F
MARSHALL       SUNNY     66  35  31 N9        30.20F
REDWOOD FALLS  SUNNY     67  35  30 W10       30.19F
OLIVIA         SUNNY     68  36  30 NW13      30.18F
PIPESTONE      SUNNY     64  32  29 W10       30.21F
WINDOM         SUNNY     66  34  30 W10       30.21F
WORTHINGTON    SUNNY     64  36  35 W9        30.21F
JACKSON        SUNNY     64  32  29 W7        30.22S
TRACY          SUNNY     67  36  32 NW9       30.21F
SLAYTON        SUNNY     63  35  35 W7        30.23S
$$
MNZ065>067-074>077-082>085-091>093-222100-
   South Central Minnesota

CITY           SKY/WX    TMP DP  RH WIND       PRES   REMARKS
MANKATO        SUNNY     65  35  33 NW6       30.20F
NEW ULM        SUNNY     64  36  34 N5        30.19F
ST JAMES       SUNNY     64  36  34 CALM      30.21F
FAIRMONT       SUNNY     65  34  31 NW6       30.21F
GLENCOE        SUNNY     66  40  38 NW5G16    30.18F
FARIBAULT      SUNNY     66  36  32 NW3       30.20F
OWATONNA       SUNNY     64  30  27 W7        30.20F
WASECA         SUNNY     64  34  32 N6        30.21F
ALBERT LEA     SUNNY     63  25  23 CALM      30.20F
$$
MNZ078>079-086>088-094>096-222100-
   Southeast Minnesota

CITY           SKY/WX    TMP DP  RH WIND       PRES   REMARKS
ROCHESTER      SUNNY     63  32  31 W5        30.21F
RED WING       SUNNY     68  27  21 W9        30.17F
STANTON        SUNNY     65  37  34 W6        30.18F
DODGE CENTER   SUNNY     63  28  27 CALM      30.20F
WINONA         SUNNY     63  27  25 NE5       30.19F
AUSTIN         SUNNY     63  30  29 N6        30.20F
PRESTON        SUNNY     62  33  33 NW10      30.20F
$$
ABBREVIATIONS USED IN REMARKS
   TC - TEMPERATURES IN CELSIUS
  WCI - WIND CHILL INDEX
   HX - HEAT INDEX
  VSB - VISIBILITY
$$




USA.gov is the U.S. government's official web portal to all federal, state and local government web resources and services.